View from above orbital plane
|
View from above satellite
|
Ground track
|
The orbit data is extracted from the following two-line orbital elements,
1 36596U 10027A 21018.89617258 .00000200 00000-0 22463-4 0 9990
2 36596 97.6729 9.5766 0010878 320.4028 39.6399 14.96865300578019
Epoch (UTC): | 18 January 2021 21:30:29 |
Eccentricity: | 0.0010878 |
inclination: | 97.6729° |
perigee height: | 569 km |
apogee height: | 584 km |
right ascension of ascending node: | 9.5766° |
argument of perigee: | 320.4028° |
revolutions per day: | 14.96865300 |
mean anomaly at epoch: | 39.6399° |
orbit number at epoch: | 57801 |
The dashed part of the orbit path shows where the satellite is in the earth's shadow,
|
|